Thieusies - 1° ThéodoTrail - 2016

Dénomination   Thieusies - 1° ThéodoTrail - 2016   27 kms
Date   samedi 06 février 2016  
Adresse  Ecole communale
 Rue de la Motte,
 7061 Thieusies
    Voir carte d'accès
Contact

 Pascal Lefebvre

  

   
Courses  27 kms
 15 kms
 
 
Inscriptions    
Parcours      
Tableau Excel des résultats

        Palmares de la course :

Course

Catégorie

Vainqueur

27 kms Messieurs SOYER Franck STILITE Laurent DEKEISTER Manu
27 kms Dames DEWULF Isabelle LOYEN Magali HANUISE Christel
15 kms Messieurs DUPONT Eddy SERGEANT Mikaël STILITE Yoann
15 kms Dames POTTIEZ Eve MICHEL Marie-Cécile BAKRIM Fatima
Course : 27 kms
Document PDF de la course
Pla. Pl.Cat Dossard Nom                       Catégorie     Temps     Course   Vitesse Min/Km
_____________________________________________________________________________________________
1 1 630 SOYER Franck Messieurs 02:05:02 27 kms 12.999 4:36
2 2 633 STILITE Laurent Messieurs 02:11:40 27 kms 12.344 4:51
3 3 533 DEKEISTER Manu Messieurs 02:12:24 27 kms 12.276 4:53
4 4 643 VERBESSELT Kevin Messieurs 02:18:53 27 kms 11.703 5:07
5 5 584 LIENARD Philippe Messieurs 02:18:59 27 kms 11.694 5:07
6 6 539 DEPAEPE Patrick Messieurs 02:19:47 27 kms 11.627 5:09
7 7 528 DEJONG Daniel Messieurs 02:20:56 27 kms 11.533 5:12
8 8 554 FIGEYS Arnout Messieurs 02:21:50 27 kms 11.459 5:14
9 9 619 RIVIERE Emmanuel Messieurs 02:22:39 27 kms 11.394 5:15
10 10 586 LOWIE Frank Messieurs 02:23:36 27 kms 11.318 5:18
11 11 595 MARBAIX Didier Messieurs 02:24:12 27 kms 11.271 5:19
12 12 589 LUCAS Romuald Messieurs 02:24:58 27 kms 11.212 5:21
13 13 535 DELCORDE Bernard Messieurs 02:25:47 27 kms 11.149 5:22
14 14 577 HUART Daniel Messieurs 02:26:11 27 kms 11.118 5:23
15 15 560 GEORGES Laurent Messieurs 02:26:51 27 kms 11.068 5:25
16 16 582 LEGRAIN Fabrice Messieurs 02:27:43 27 kms 11.003 5:27
17 17 642 VANDERSTRAETEN Mattias Messieurs 02:29:18 27 kms 10.886 5:30
18 18 562 GIALONI Diego Messieurs 02:30:11 27 kms 10.822 5:32
19 19 592 MAES Joris Messieurs 02:30:25 27 kms 10.805 5:33
20 20 563 CAPIEAU Rodolphe Messieurs 02:30:43 27 kms 10.784 5:33
21 21 519 COLLEGE Jean-François Messieurs 02:31:12 27 kms 10.750 5:34
22 22 570 HAULAIT Alain Messieurs 02:31:18 27 kms 10.742 5:35
23 23 597 MARCHESE Fabian Messieurs 02:32:09 27 kms 10.682 5:36
24 24 657 COQUELET Joffrey Messieurs 02:32:13 27 kms 10.678 5:37
25 25 515 CHEVALIER Michaël Messieurs 02:32:37 27 kms 10.650 5:38
26 26 500 ADRIANSSENS Serge Messieurs 02:33:35 27 kms 10.583 5:40
27 27 632 STIENEN Rudi Messieurs 02:34:05 27 kms 10.548 5:41
28 28 561 GHUISOLAND Alfred Messieurs 02:34:38 27 kms 10.511 5:42
29 29 529 DE REUSE Tim Messieurs 02:35:08 27 kms 10.477 5:43
30 30 616 POTTIEZ Philippe Messieurs 02:35:10 27 kms 10.475 5:43
31 31 634 TACK Arnaud Messieurs 02:35:24 27 kms 10.459 5:44
32 32 618 RICHEZ Grégory Messieurs 02:36:07 27 kms 10.411 5:45
33 33 501 AERTS Alain Messieurs 02:36:18 27 kms 10.399 5:46
34 34 555 FOGLIA Justin Messieurs 02:37:32 27 kms 10.317 5:48
35 35 622 ROMAN Peter Messieurs 02:39:14 27 kms 10.207 5:52
36 36 559 GALVEZ Gauthier Messieurs 02:39:51 27 kms 10.168 5:54
37 37 606 MUSIN Renaud Messieurs 02:39:55 27 kms 10.164 5:54
38 38 565 GOMES-FERREIRA Ricardo Messieurs 02:40:02 27 kms 10.156 5:54
39 39 520 COLLIN Pierre Messieurs 02:40:55 27 kms 10.100 5:56
40 40 537 DELWARTE Laurent Messieurs 02:41:00 27 kms 10.095 5:56
41 41 540 DEPRETRE Frédéric Messieurs 02:41:49 27 kms 10.044 5:58
42 42 583 LEWILLION Philippe Messieurs 02:41:54 27 kms 10.039 5:58
43 43 645 VERGOUWEN Bernd Messieurs 02:43:19 27 kms 9.952 6:01
44 44 608 OPSOMER Bruno Messieurs 02:43:21 27 kms 9.950 6:01
45 45 575 HOCQUET Stéphane Messieurs 02:43:54 27 kms 9.917 6:03
46 46 521 CORNELIS Renaud Messieurs 02:45:43 27 kms 9.808 6:07
47 47 628 SEMET Julien Messieurs 02:47:28 27 kms 9.705 6:10
48 48 557 FRAITURE Thomas Messieurs 02:47:48 27 kms 9.686 6:11
49 49 507 BASTIN Simon Messieurs 02:48:16 27 kms 9.659 6:12
50 50 651 ZORZI Bruno Messieurs 02:48:18 27 kms 9.657 6:12
51 1 547 DEWULF Isabelle Dames 02:48:43 27 kms 9.633 6:13
52 51 543 DESCHUYTENEER Stéphane Messieurs 02:48:45 27 kms 9.631 6:13
53 52 640 VAN LIERDE Jan Messieurs 02:49:24 27 kms 9.595 6:15
54 53 506 BARBE Guido Messieurs 02:49:26 27 kms 9.593 6:15
55 54 652 VAN ONACKER Stéphan Messieurs 02:49:29 27 kms 9.590 6:15
56 55 590 MABILLE Olivier Messieurs 02:50:28 27 kms 9.535 6:17
57 56 624 ROOSENS Frans Messieurs 02:50:30 27 kms 9.533 6:17
58 57 647 VROLIX Luc Messieurs 02:50:50 27 kms 9.514 6:18
59 2 587 LOYEN Magali Dames 02:51:21 27 kms 9.485 6:19
60 58 580 LECLEF Julien Messieurs 02:51:23 27 kms 9.484 6:19
61 59 574 HERREMANS Sven Messieurs 02:51:45 27 kms 9.463 6:20
62 60 585 LOUVRIER Vincent Messieurs 02:53:29 27 kms 9.369 6:24
63 3 569 HANUISE Christel Dames 02:53:32 27 kms 9.366 6:24
64 61 503 BALDARELLI Fabio Messieurs 02:53:35 27 kms 9.363 6:24
65 62 615 POOT Laurent Messieurs 02:53:58 27 kms 9.343 6:25
66 63 566 GONZE Michel Messieurs 02:54:28 27 kms 9.316 6:26
67 64 525 D'ADDABBO Oronzo Messieurs 02:54:30 27 kms 9.314 6:26
68 4 534 DELACENSERIE Carine Dames 02:54:35 27 kms 9.310 6:26
69 65 591 MACTELLINCK André Messieurs 02:55:17 27 kms 9.272 6:28
70 66 603 MOREAU Christophe Messieurs 02:55:28 27 kms 9.263 6:28
71 67 514 CHARLES Stéphan Messieurs 02:55:33 27 kms 9.258 6:28
72 68 505 BALLEZ François Messieurs 02:55:43 27 kms 9.250 6:29
73 5 654 GOOSSENS Annick Dames 02:55:50 27 kms 9.243 6:29
74 69 610 PATTE Bruno Messieurs 02:55:52 27 kms 9.242 6:29
75 70 502 ANNESSENS Joachim Messieurs 02:56:32 27 kms 9.207 6:30
76 71 658 BROGNEZ Laurent Messieurs 02:56:51 27 kms 9.190 6:31
77 72 649 WILLEMIN Mathieu Messieurs 02:57:39 27 kms 9.149 6:33
78 73 532 DEFRAENE Stéphane Messieurs 02:58:14 27 kms 9.119 6:34
79 74 508 BISIAU Philippe Messieurs 02:58:17 27 kms 9.116 6:34
80 75 524 CUYVERS Frédérik Messieurs 02:58:32 27 kms 9.104 6:35
81 76 660 JAUNART Grégory Messieurs 02:58:39 27 kms 9.098 6:35
82 77 648 WAROQUIER Stéphane Messieurs 02:59:42 27 kms 9.045 6:38
83 78 612 PENTE Matthias Messieurs 02:59:47 27 kms 9.040 6:38
84 79 655 CRUTZEN Julien Messieurs 02:59:51 27 kms 9.037 6:38
85 80 556 FOSTIER Raphaël Messieurs 03:00:48 27 kms 8.990 6:40
86 81 513 CALLEWIER Antoine Messieurs 03:00:50 27 kms 8.988 6:40
87 82 607 NESI Jean-Pol Messieurs 03:01:22 27 kms 8.961 6:41
88 83 646 VILAIN Patrick Messieurs 03:01:55 27 kms 8.934 6:42
89 84 594 MARACHE Julien Messieurs 03:02:08 27 kms 8.924 6:43
90 85 531 DECLEVE Benoît Messieurs 03:03:02 27 kms 8.880 6:45
91 86 550 EMPAIN Daniel Messieurs 03:03:17 27 kms 8.868 6:45
92 87 571 HENDRICK Luc Messieurs 03:04:00 27 kms 8.833 6:47
93 88 573 HERION Thomas Messieurs 03:04:13 27 kms 8.823 6:48
94 6 523 COUMPOURAS Géraldine Dames 03:04:17 27 kms 8.820 6:48
95 89 568 SALES François Messieurs 03:04:48 27 kms 8.795 6:49
96 90 644 VERCRUYSSE Dimitri Messieurs 03:05:09 27 kms 8.778 6:50
97 91 636 TILLIEUX Guy Messieurs 03:05:38 27 kms 8.755 6:51
98 92 635 THIENPONT Ivan Messieurs 03:05:53 27 kms 8.744 6:51
99 93 656 BIAUCE Vincent Messieurs 03:06:19 27 kms 8.723 6:52
100 94 599 MEYVISCH Jean-Christophe Messieurs 03:08:30 27 kms 8.622 6:57
101 95 548 DUBOIS Nicolas Messieurs 03:08:48 27 kms 8.609 6:58
102 7 613 PIERROT Sabine Dames 03:08:52 27 kms 8.606 6:58
103 96 536 DELERS Pascal Messieurs 03:08:55 27 kms 8.603 6:58
104 8 511 BOURMORCK Carine Dames 03:10:36 27 kms 8.527 7:02
105 97 509 BORZEE Christophe Messieurs 03:12:29 27 kms 8.444 7:06
106 98 631 STERCKX Frédéric Messieurs 03:15:35 27 kms 8.310 7:13
107 99 659 SODDU Albano Messieurs 03:15:39 27 kms 8.307 7:13
108 100 627 SELVAIS Simon Messieurs 03:16:07 27 kms 8.287 7:14
109 9 542 DESCHODT Samantha Dames 03:19:11 27 kms 8.160 7:21
110 101 517 CLAEYS Kristof Messieurs 03:19:14 27 kms 8.158 7:21
111 10 581 LEEN Katrijn Dames 03:20:34 27 kms 8.104 7:24
112 102 538 DENEVE Alain Messieurs 03:20:40 27 kms 8.099 7:24
113 103 629 SOCCIO Michel Messieurs 03:22:40 27 kms 8.020 7:28
114 11 611 PAVET Isabelle Dames 03:22:58 27 kms 8.008 7:29
115 104 623 ROOSE David Messieurs 03:26:04 27 kms 7.887 7:36
116 105 602 MOREAU Eddy Messieurs 03:26:59 27 kms 7.852 7:38
117 106 512 BURNIAUX David Messieurs 03:27:10 27 kms 7.845 7:38
118 107 553 FICAROTTA Michelangelo Messieurs 03:28:12 27 kms 7.806 7:41
119 108 572 HENNEBERT Bertrand Messieurs 03:29:02 27 kms 7.775 7:42
120 12 558 GALANT Anne Dames 03:30:19 27 kms 7.728 7:45
121 13 504 BALDARELLI Teresa Dames 03:30:32 27 kms 7.720 7:46
Course : 15 kms
Document PDF de la course
Pla. Pl.Cat Dossard Nom                       Catégorie     Temps     Course   Vitesse Min/Km
_____________________________________________________________________________________________
1 1 112 DUPONT Eddy Messieurs 01:01:13 15 kms 14.799 4:03
2 2 240 SERGEANT Mikaël Messieurs 01:01:50 15 kms 14.652 4:05
3 3 248 STILITE Yoann Messieurs 01:01:54 15 kms 14.636 4:05
4 4 296 DE PRETER Sibren Messieurs 01:01:57 15 kms 14.624 4:06
5 5 252 TENAERTS Antoine Messieurs 01:03:50 15 kms 14.193 4:13
6 6 40 CAVYN Jean-Philippe Messieurs 01:06:14 15 kms 13.678 4:23
7 7 39 CAUDRON David Messieurs 01:08:38 15 kms 13.200 4:32
8 8 253 TENAERTS Thomas Messieurs 01:09:17 15 kms 13.076 4:35
9 9 150 KINDERMANS Nicolas Messieurs 01:09:41 15 kms 13.001 4:36
10 10 199 MICHEL Sylvain Messieurs 01:10:21 15 kms 12.878 4:39
11 11 130 GOOSSENS Jacky Messieurs 01:11:15 15 kms 12.715 4:43
12 12 271 VAN EYCKE Gert Messieurs 01:11:31 15 kms 12.668 4:44
13 13 281 VANNOORENBERGHE Cédric Messieurs 01:11:39 15 kms 12.644 4:44
14 14 300 BLONDEL Jean-Baptiste Messieurs 01:11:45 15 kms 12.627 4:45
15 15 24 BOTTE Vincent Messieurs 01:11:49 15 kms 12.615 4:45
16 16 181 MALCOURANT Cyrille Messieurs 01:12:22 15 kms 12.519 4:47
17 17 38 CARTON Tom Messieurs 01:12:41 15 kms 12.465 4:48
18 18 174 LOUVRIER Arnaud Messieurs 01:13:11 15 kms 12.379 4:50
19 19 190 MEHOUDENS Alain Messieurs 01:13:21 15 kms 12.351 4:51
20 20 268 VALOIS Allan Messieurs 01:13:33 15 kms 12.318 4:52
21 21 11 BASTIEN Nicolas Messieurs 01:14:22 15 kms 12.182 4:55
22 22 102 DOCLOT Frédéric Messieurs 01:14:36 15 kms 12.144 4:56
23 23 99 DESSILLY Nicolas Messieurs 01:15:14 15 kms 12.042 4:58
24 24 94 DEREUME Pascal Messieurs 01:15:27 15 kms 12.007 4:59
25 25 95 DESCAMPS François Messieurs 01:15:57 15 kms 11.928 5:01
26 26 302 NAVEAU Sébastien Messieurs 01:17:05 15 kms 11.753 5:06
27 27 76 DELATTE Sylvain Messieurs 01:18:35 15 kms 11.529 5:12
28 28 104 DORSIMONT Sébastien Messieurs 01:18:39 15 kms 11.519 5:12
29 29 92 DEPAEPE Thomas Messieurs 01:18:41 15 kms 11.514 5:12
30 30 214 PECCENINI Stéphane Messieurs 01:20:03 15 kms 11.317 5:18
31 31 242 SEVENS Quentin Messieurs 01:20:05 15 kms 11.313 5:18
32 32 87 DEMANY Martial Messieurs 01:20:12 15 kms 11.296 5:18
33 33 273 VAN RECHEM François Messieurs 01:20:16 15 kms 11.287 5:18
34 34 116 EWBANK Geoffrey Messieurs 01:20:18 15 kms 11.282 5:19
35 35 179 MALBRECQ Bernard Messieurs 01:20:23 15 kms 11.270 5:19
36 1 219 POTTIEZ Eve Dames 01:20:38 15 kms 11.236 5:20
37 36 249 STOCKE David Messieurs 01:21:11 15 kms 11.159 5:22
38 37 283 VERTENEUIL Arnaud Messieurs 01:21:28 15 kms 11.121 5:23
39 38 301 SCOUBEAU Olivier Messieurs 01:21:36 15 kms 11.102 5:24
40 39 246 D'ANGELO Gabriel Messieurs 01:21:42 15 kms 11.089 5:24
41 40 182 MARCHAL Xavier Messieurs 01:21:48 15 kms 11.075 5:25
42 2 198 MICHEL Marie-Cécile Dames 01:22:28 15 kms 10.986 5:27
43 41 82 VERCAMMEN Arnaud Messieurs 01:22:34 15 kms 10.972 5:28
44 42 49 CONDOTTA Frédéric Messieurs 01:22:43 15 kms 10.953 5:28
45 43 289 WAUTHIER David Messieurs 01:22:57 15 kms 10.922 5:29
46 44 287 WAQUEZ Arnaud Messieurs 01:24:03 15 kms 10.779 5:33
47 45 96 DESMET Alain Messieurs 01:24:06 15 kms 10.772 5:34
48 46 294 HALBRECQ Bertrand Messieurs 01:24:15 15 kms 10.753 5:34
49 47 205 MONFORT Michaël Messieurs 01:24:18 15 kms 10.747 5:34
50 48 286 VOLINO Fabrizio Messieurs 01:24:37 15 kms 10.707 5:36
51 49 218 PILETTE Benoît Messieurs 01:24:57 15 kms 10.665 5:37
52 50 166 LEROY Brice Messieurs 01:25:30 15 kms 10.596 5:39
53 51 4 ANCELIN Jonathan Messieurs 01:25:32 15 kms 10.592 5:39
54 52 148 KENDA Damien Messieurs 01:25:35 15 kms 10.586 5:40
55 53 138 HONOREZ Thomas Messieurs 01:25:38 15 kms 10.579 5:40
56 54 16 BEUMIER Robin Messieurs 01:25:44 15 kms 10.567 5:40
57 55 67 DE LEYE Stefaan Messieurs 01:25:46 15 kms 10.563 5:40
58 3 8 BAKRIM Fatima Dames 01:25:56 15 kms 10.543 5:41
59 56 245 SPELMANS Christophe Messieurs 01:25:59 15 kms 10.536 5:41
60 57 295 DUPONT Olivier Messieurs 01:26:28 15 kms 10.478 5:43
61 4 279 VANDER MASSEN Hélène Dames 01:26:32 15 kms 10.469 5:43
62 58 250 TABARY Arduin Messieurs 01:26:34 15 kms 10.465 5:43
63 59 132 GREUSE Dimitri Messieurs 01:27:01 15 kms 10.411 5:45
64 60 133 HADJ Paul Messieurs 01:27:04 15 kms 10.405 5:45
65 61 141 HOUDART Pierre Messieurs 01:27:06 15 kms 10.401 5:46
66 62 66 DE JONG Jonathan Messieurs 01:27:10 15 kms 10.393 5:46
67 63 43 CHERPION Jérôme Messieurs 01:27:12 15 kms 10.389 5:46
68 64 52 COS Mathias Messieurs 01:27:45 15 kms 10.324 5:48
69 65 64 DE CALUWE Jean-Noël Messieurs 01:28:05 15 kms 10.285 5:50
70 66 149 KIESECOMS Pascal Messieurs 01:28:08 15 kms 10.279 5:50
71 67 251 TEGAS Gio Messieurs 01:28:11 15 kms 10.274 5:50
72 68 267 VALENNE Geoffrey Messieurs 01:28:45 15 kms 10.208 5:52
73 69 173 LOMBARD Philippe Messieurs 01:28:51 15 kms 10.196 5:53
74 5 196 MERTENS Patricia Dames 01:29:02 15 kms 10.175 5:53
75 70 297 HOSTE Peter Messieurs 01:29:17 15 kms 10.147 5:54
76 71 215 PENSEZ Paul Messieurs 01:29:21 15 kms 10.139 5:55
77 72 255 THIBAUT Jacques Messieurs 01:29:24 15 kms 10.134 5:55
78 73 153 LALOY Philippe Messieurs 01:29:35 15 kms 10.113 5:55
79 74 237 SCAUFLAIRE Steve Messieurs 01:29:49 15 kms 10.087 5:56
80 75 154 LAURENT Alain Messieurs 01:29:52 15 kms 10.081 5:57
81 6 221 RASQUIN Hélène Dames 01:29:55 15 kms 10.075 5:57
82 7 257 THIRY Catherine Dames 01:29:57 15 kms 10.072 5:57
83 76 118 FEKETE Clément Messieurs 01:30:00 15 kms 10.066 5:57
84 8 231 ROLAND Eglantine Dames 01:30:06 15 kms 10.055 5:58
85 9 259 THUIN Virginie Dames 01:30:11 15 kms 10.046 5:58
86 77 45 CHOQUET Thomas Messieurs 01:30:13 15 kms 10.042 5:58
87 78 42 CHENOY Pierre Messieurs 01:30:22 15 kms 10.025 5:59
88 79 60 D'AGOSTINO Sergio Messieurs 01:30:27 15 kms 10.016 5:59
89 80 277 VANDEN ABEELE Ludovic Messieurs 01:30:44 15 kms 9.985 6:00
90 81 113 DUPONT Willy Messieurs 01:30:48 15 kms 9.977 6:00
91 82 129 GOETHALS Maxence Messieurs 01:30:54 15 kms 9.966 6:01
92 83 247 SPITALERI Mario Messieurs 01:30:57 15 kms 9.961 6:01
93 10 57 CROWET Florence Dames 01:31:00 15 kms 9.956 6:01
94 84 18 BISET Maxime Messieurs 01:32:07 15 kms 9.835 6:06
95 85 110 DRUART Olivier Messieurs 01:32:09 15 kms 9.831 6:06
96 11 186 MARTENS Anja Dames 01:32:11 15 kms 9.828 6:06
97 86 260 THYS Laurent Messieurs 01:32:14 15 kms 9.822 6:06
98 87 256 THILL Didier Messieurs 01:32:17 15 kms 9.817 6:06
99 88 103 DOLLÉ Xavier Messieurs 01:32:23 15 kms 9.806 6:07
100 89 13 BERDOUX Jacques Messieurs 01:32:27 15 kms 9.799 6:07
101 90 65 DE CONINCK Benoît Messieurs 01:32:37 15 kms 9.782 6:08
102 91 243 SINE Benoît Messieurs 01:32:46 15 kms 9.766 6:08
103 92 119 SPIELMANN Raphaël Messieurs 01:33:06 15 kms 9.731 6:09
104 93 26 BOURLEAU Bernard Messieurs 01:33:11 15 kms 9.722 6:10
105 94 298 DE MESSEMAEKER Didier Messieurs 01:33:20 15 kms 9.707 6:10
106 12 120 FOUCART Pascaline Dames 01:34:30 15 kms 9.587 6:15
107 95 107 DRESEN Jonathan Messieurs 01:34:33 15 kms 9.582 6:15
108 96 15 BERTRAND Dominique Messieurs 01:34:36 15 kms 9.577 6:15
109 97 204 MOINS Sébastien Messieurs 01:34:39 15 kms 9.572 6:16
110 13 225 ROBIQUET Juliette Dames 01:34:42 15 kms 9.567 6:16
111 14 151 KOOB Marie-Cécile Dames 01:34:47 15 kms 9.558 6:16
112 98 22 BORRACCETTI Johan Messieurs 01:34:51 15 kms 9.551 6:16
113 99 142 HUARD Maxime Messieurs 01:34:55 15 kms 9.545 6:17
114 15 299 GOVAERT Yasmine Dames 01:35:01 15 kms 9.535 6:17
115 100 226 RODIA Frédéric Messieurs 01:35:09 15 kms 9.521 6:18
116 101 263 TRIGALLEZ Olivier Messieurs 01:35:35 15 kms 9.478 6:19
117 16 69 DECAIGNY Anita Dames 01:35:41 15 kms 9.468 6:20
118 17 213 PALUMBO Nancy Dames 01:35:50 15 kms 9.453 6:20
119 102 254 TESSE Robert Messieurs 01:35:56 15 kms 9.444 6:21
120 103 114 DWORNICZAK Benjamin Messieurs 01:36:02 15 kms 9.434 6:21
121 104 211 OPSOMER Tomas Messieurs 01:36:05 15 kms 9.429 6:21
122 105 236 SAUDOYER Cédric Messieurs 01:36:09 15 kms 9.422 6:22
123 18 164 LEPIECE Aurélie Dames 01:36:13 15 kms 9.416 6:22
124 19 264 URBAIN Ginette Dames 01:36:29 15 kms 9.390 6:23
125 106 75 DEJONGHE Hannes Messieurs 01:36:39 15 kms 9.374 6:24
126 107 184 MARIEN Marc Messieurs 01:36:41 15 kms 9.370 6:24
127 108 83 DELPLACE Hervé Messieurs 01:36:48 15 kms 9.359 6:24
128 20 229 ROGGEN Stéphanie Dames 01:37:24 15 kms 9.301 6:27
129 109 115 ESPRIT Siemen Messieurs 01:37:29 15 kms 9.293 6:27
130 110 123 GABRIEL Stan Messieurs 01:37:30 15 kms 9.292 6:27
131 111 56 CROHIN Gaëtan Messieurs 01:37:33 15 kms 9.287 6:27
132 112 80 DELBUSHAYE Christophe Messieurs 01:37:41 15 kms 9.274 6:28
133 113 146 JOTTRAND Mathieu Messieurs 01:37:56 15 kms 9.251 6:29
134 114 160 LEFEBVRE Paulin Messieurs 01:38:29 15 kms 9.199 6:31
135 21 106 DREESSEN Joëlle Dames 01:38:34 15 kms 9.191 6:31
136 115 9 BASIBEI Dimitri Messieurs 01:38:36 15 kms 9.188 6:31
137 22 111 DUGAUQUIER Catherine Dames 01:38:51 15 kms 9.165 6:32
138 23 258 THOMAS Geneviève Dames 01:38:53 15 kms 9.162 6:32
139 116 187 MASURE Jonathan Messieurs 01:38:59 15 kms 9.153 6:33
140 24 210 NAVALONA Laingo Dames 01:39:06 15 kms 9.142 6:33
141 117 126 GALLUCIO Gaël Messieurs 01:39:12 15 kms 9.133 6:34
142 25 140 HOUBA Isabelle Dames 01:39:13 15 kms 9.131 6:34
143 118 109 DROUILLON Philippe Messieurs 01:39:49 15 kms 9.076 6:36
144 119 81 DELHOVE Ralf Messieurs 01:39:51 15 kms 9.073 6:36
145 120 206 MOREAU Noël Messieurs 01:39:57 15 kms 9.064 6:37
146 121 48 COLLE Ludovic Messieurs 01:40:09 15 kms 9.046 6:37
147 122 175 LUCAS Alexis Messieurs 01:40:20 15 kms 9.029 6:38
148 123 12 BELGRAND Florent Messieurs 01:40:24 15 kms 9.023 6:38
149 124 108 DROSSART Julien Messieurs 01:40:33 15 kms 9.010 6:39
150 26 291 WINDAL Magali Dames 01:40:37 15 kms 9.004 6:39
151 27 98 DESMYTER Laurence Dames 01:40:39 15 kms 9.001 6:39
152 125 157 LEBRUN Jean-Jacques Messieurs 01:40:55 15 kms 8.977 6:40
153 126 46 CLAUS Cédric Messieurs 01:41:17 15 kms 8.945 6:42
154 28 165 LERNOULD Elodie Dames 01:41:34 15 kms 8.920 6:43
155 29 223 REMY Samantha Dames 01:41:39 15 kms 8.912 6:43
156 30 292 WOODRUFF Pascale Dames 01:41:40 15 kms 8.911 6:43
157 127 51 CONTENT Xavier Messieurs 01:41:42 15 kms 8.908 6:44
158 128 34 CANTINIAUX Arnaud Messieurs 01:41:51 15 kms 8.895 6:44
159 129 188 MATTENS Frédéric Messieurs 01:41:57 15 kms 8.886 6:45
160 130 177 MAETENS Yves Messieurs 01:42:02 15 kms 8.879 6:45
161 31 68 DEBLEECKER Muriel Dames 01:42:34 15 kms 8.833 6:47
162 131 228 RODRIGUEZ José Messieurs 01:42:41 15 kms 8.823 6:48
163 132 134 HENAUT Bruno Messieurs 01:42:51 15 kms 8.808 6:48
164 32 139 HOTAUX Fanny Dames 01:43:06 15 kms 8.787 6:49
165 33 189 MATTHYS Sophie Dames 01:43:12 15 kms 8.779 6:50
166 133 131 GOSSIAUX Olivier Messieurs 01:43:23 15 kms 8.763 6:50
167 34 5 ANDRÉ Nathalie Dames 01:43:27 15 kms 8.757 6:51
168 35 135 HENNAUT Frederique Dames 01:43:28 15 kms 8.756 6:51
169 134 90 DEMOLIN Georges Messieurs 01:43:32 15 kms 8.750 6:51
170 135 209 MOUTTEAU Philippe Messieurs 01:43:42 15 kms 8.736 6:52
171 136 220 POULAIN Sébastien Messieurs 01:43:57 15 kms 8.715 6:53
172 137 275 VANDEN ABEELE Eddy Messieurs 01:44:06 15 kms 8.703 6:53
173 138 276 VANDEN ABEELE Patrick Messieurs 01:44:09 15 kms 8.698 6:53
174 36 143 HUART Caroline Dames 01:44:29 15 kms 8.671 6:55
175 139 19 BLOND Benjamin Messieurs 01:44:31 15 kms 8.668 6:55
176 140 74 DEJONGHE Cédric Messieurs 01:44:38 15 kms 8.658 6:55
177 37 100 D'HAUFAYT Elise Dames 01:44:39 15 kms 8.657 6:55
178 141 233 ROLLAND Philippe Messieurs 01:44:42 15 kms 8.653 6:56
179 38 89 DEMEULENAERE Sophie Dames 01:44:48 15 kms 8.645 6:56
180 39 73 DEHOUST Marianne Dames 01:44:51 15 kms 8.640 6:56
181 40 72 DEFFONTAINE Valérie Dames 01:44:54 15 kms 8.636 6:56
182 41 122 FUNDUK Stéphanie Dames 01:46:01 15 kms 8.545 7:01
183 42 101 DIERICK Sabrina Dames 01:46:11 15 kms 8.532 7:01
184 43 265 VAESEN Stéphanie Dames 01:46:18 15 kms 8.523 7:02
185 142 27 BRASSART Dominique Messieurs 01:46:22 15 kms 8.517 7:02
186 44 91 DENEUMOUSTIER Eve Dames 01:46:53 15 kms 8.476 7:04
187 143 58 CUIGNEZ Philippe Messieurs 01:47:32 15 kms 8.425 7:07
188 144 222 RAUX Steve Messieurs 01:47:35 15 kms 8.421 7:07
189 45 212 OTTEVAERE Justine Dames 01:47:38 15 kms 8.417 7:07
190 46 41 CERISIER Delphine Dames 01:48:52 15 kms 8.322 7:12
191 145 1 ABOU NOUAIM Karim Messieurs 01:49:15 15 kms 8.292 7:14
192 146 79 DELBOUILLE Thierry Messieurs 01:49:17 15 kms 8.290 7:14
193 147 33 CALVO FRESNO José-Antonio Messieurs 01:49:24 15 kms 8.281 7:14
194 148 71 DEFER Jean-Claude Messieurs 01:49:37 15 kms 8.265 7:15
195 149 234 ROUSSEL Cédric Messieurs 01:49:40 15 kms 8.261 7:15
196 47 290 WIDAR Mary Dames 01:50:14 15 kms 8.218 7:18
197 150 227 RODRIGUE Daniel Messieurs 01:50:18 15 kms 8.213 7:18
198 48 217 PIERART Myriam Dames 01:50:46 15 kms 8.179 7:20
199 49 54 COUSSEMENT Valérie Dames 01:50:48 15 kms 8.176 7:20
200 50 63 DE BONT Eloise Dames 01:51:04 15 kms 8.157 7:21
201 151 200 MILICAN Patrick Messieurs 01:51:08 15 kms 8.152 7:21
202 152 55 COUVREUR Christophe Messieurs 01:51:21 15 kms 8.136 7:22
203 51 285 VITSKENS Fanny Dames 01:52:10 15 kms 8.077 7:25
204 153 170 L'HOIR Thibaut Messieurs 01:52:41 15 kms 8.040 7:27
205 52 124 GALBRUN Marie-Amédée Dames 01:53:11 15 kms 8.004 7:29
206 154 28 BRESSAND Romain Messieurs 01:53:13 15 kms 8.002 7:29
207 155 192 MELCHIOR Nicolas Messieurs 01:53:20 15 kms 7.994 7:30
208 53 193 MENDEZ Katerin Dames 01:53:26 15 kms 7.987 7:30
209 54 14 BERTINCHAMPS Céline Dames 01:53:36 15 kms 7.975 7:31
210 156 280 VANLAUTEM Olivier Messieurs 01:53:41 15 kms 7.969 7:31
211 55 171 LIBERT Sabine Dames 01:53:43 15 kms 7.967 7:31
212 157 128 GEVENOIS Frank Messieurs 01:53:46 15 kms 7.963 7:32
213 158 156 LEBLON Marc Messieurs 01:53:53 15 kms 7.955 7:32
214 56 169 LETERME Vanessa Dames 01:53:56 15 kms 7.952 7:32
215 57 137 HONORE Mélanie Dames 01:54:08 15 kms 7.938 7:33
216 58 70 DECAIGNY Françoise Dames 01:54:11 15 kms 7.934 7:33
217 59 53 COTTON Caroline Dames 01:54:14 15 kms 7.931 7:33
218 60 161 LEFEVRE Cécile Dames 01:54:16 15 kms 7.928 7:34
219 61 125 GALLEZ Laurence Dames 01:54:18 15 kms 7.926 7:34
220 62 261 TONSENST Nathalie Dames 01:55:19 15 kms 7.856 7:38
221 63 262 TONSENST Sarah Dames 01:56:45 15 kms 7.760 7:43
222 64 180 MALBRECQ Clémence Dames 01:56:49 15 kms 7.755 7:44
223 65 88 DEMARET Alison Dames 01:57:29 15 kms 7.711 7:46
224 66 159 LECLERCQ Monique Dames 01:57:32 15 kms 7.708 7:47
225 67 224 RIBAUVILLE Nathalie Dames 01:58:19 15 kms 7.657 7:50
226 159 21 BONFIGLIO Giacinto Messieurs 01:58:21 15 kms 7.655 7:50
227 68 10 BASSIBEI Laurence Dames 01:58:23 15 kms 7.653 7:50
228 69 207 MORTEHAN Aude Dames 01:58:29 15 kms 7.646 7:50
229 70 208 MOURY Maïté Dames 01:58:31 15 kms 7.644 7:50
230 71 241 SEVENS Isabelle Dames 01:58:33 15 kms 7.642 7:51
231 160 185 MARQUANT Nicolas Messieurs 01:58:38 15 kms 7.636 7:51
232 72 230 ROLAND Amélie Dames 02:04:25 15 kms 7.281 8:14
233 161 232 ROLAND Philippe Messieurs 02:05:31 15 kms 7.218 8:18
234 162 47 CLYMANS Stéphane Messieurs 02:06:53 15 kms 7.140 8:24
235 73 288 WAUTELET Aurélie Dames 02:07:37 15 kms 7.099 8:27
236 74 168 LETE Julie Dames 02:08:32 15 kms 7.048 8:30
237 75 266 VAGENENDE Nathalie Dames 02:11:35 15 kms 6.885 8:42
238 76 167 LESOIL Harmony Dames 02:18:05 15 kms 6.561 9:08
239 77 78 DELBAUVE Véronique Dames 02:19:48 15 kms 6.480 9:15
240 78 163 LEMAL Véronique Dames 02:19:51 15 kms 6.478 9:15
241 79 293 YPERSIEL Jessica Dames 02:19:55 15 kms 6.475 9:15
242 80 59 CUVELIER Gwendoline Dames 02:20:24 15 kms 6.452 9:17
243 163 62 DE BACKER Dave Messieurs 02:20:27 15 kms 6.450 9:18